Location: Ajisawe
(8.4333°N, 4.3833°E)
Time: 02:17:09
(UTC+00:00)

X-37B - Pass Details

Date: 07 March 2021
Orbit: 380 x 394 km, 45.0° (Epoch: 07 April)

Event Time Altitude Azimuth Distance (km) Brightness Sun altitude
Rises 18:11:43 0° 222° (SW) 2,251 5.2 -5.2°
Reaches altitude 10° 18:13:47 10° 221° (SW) 1,400 4.1 -5.8°
Maximum altitude 18:16:56 84° 131° (SE) 389 0.5 -6.5°
Drops below altitude 10° 18:20:06 10° 45° (NE) 1,406 3.0 -7.3°
Enters shadow 18:21:17 - 44° (NE) 1,895 3.6 -7.6°
